• In Hungary
  • List of Countries
  • For 7 days
  • Water Temperature
  • Satellite Maps
  • Weather Map
  • News
  • Weather Widgets
  • user-avatar
    Login

    Hourly Weather Solden

    Today, 16 November, Friday

    Time Temperature Precipitation Wind Pressure Humidity
    00:00 -1°C° 0 mm 1 mps 584 mmHg 53%
    01:00 -1°C° 0 mm 1 mps 584 mmHg 52%
    02:00 -1°C° 0 mm 1 mps 584 mmHg 52%
    03:00 -1°C° 0 mm 1 mps 584 mmHg 52%
    04:00 -2°C° 0 mm 1 mps 584 mmHg 52%
    05:00 -2°C° 0 mm 1 mps 584 mmHg 53%
    06:00 -2°C° 0 mm 1 mps 584 mmHg 55%
    07:00 -3°C° 0 mm 1 mps 584 mmHg 57%
    08:00 -1°C° 0 mm 1 mps 585 mmHg 56%
    09:00 +1°C° 0 mm 1 mps 586 mmHg 56%
    10:00 +2°C° 0 mm 1 mps 587 mmHg 56%
    11:00 +2°C° 0 mm 1 mps 587 mmHg 56%
    12:00 +2°C° 0 mm 2 mps 587 mmHg 56%
    13:00 +2°C° 0 mm 2 mps 587 mmHg 56%
    14:00 +1°C° 0 mm 2 mps 586 mmHg 61%
    15:00 +1°C° 0 mm 1 mps 585 mmHg 67%
    16:00 0°C° 0 mm 1 mps 584 mmHg 72%
    17:00 -1°C° 0 mm 1 mps 584 mmHg 77%
    18:00 -2°C° 0 mm 1 mps 584 mmHg 82%
    19:00 -3°C° 0 mm 1 mps 584 mmHg 87%
    20:00 -3°C° 0 mm 1 mps 584 mmHg 88%
    21:00 -3°C° 0 mm 1 mps 584 mmHg 89%
    22:00 -4°C° 0 mm 1 mps 584 mmHg 90%
    23:00 -4°C° 0 mm 1 mps 584 mmHg 90%

    Tomorrow, 17 November, Saturday

    Time Temperature Precipitation Wind Pressure Humidity
    00:00 -4°C° 0 mm 1 mps 584 mmHg 90%
    01:00 -4°C° 0 mm 1 mps 584 mmHg 90%
    02:00 -6°C° 0 mm 1 mps 583 mmHg 90%
    03:00 -6°C° 0 mm 1 mps 583 mmHg 89%
    04:00 -6°C° 0 mm 1 mps 583 mmHg 89%
    05:00 -6°C° 0 mm 1 mps 582 mmHg 89%
    06:00 -7°C° 0 mm 1 mps 582 mmHg 88%
    07:00 -7°C° 0 mm 1 mps 582 mmHg 87%
    08:00 -6°C° 0 mm 1 mps 583 mmHg 79%
    09:00 -5°C° 0 mm 2 mps 584 mmHg 71%
    10:00 -4°C° 0 mm 2 mps 584 mmHg 62%
    11:00 -1°C° 0 mm 1 mps 584 mmHg 56%
    12:00 0°C° 0 mm 1 mps 584 mmHg 51%
    13:00 +1°C° 0 mm 1 mps 584 mmHg 45%
    14:00 0°C° 0 mm 1 mps 584 mmHg 48%
    15:00 -1°C° 0 mm 1 mps 583 mmHg 52%
    16:00 -3°C° 0 mm 0 mps 582 mmHg 55%
    17:00 -5°C° 0 mm 0 mps 582 mmHg 59%
    18:00 -6°C° 0 mm 0 mps 581 mmHg 63%
    19:00 -7°C° 0 mm 1 mps 581 mmHg 66%
    20:00 -7°C° 0 mm 1 mps 581 mmHg 69%
    21:00 -8°C° 0 mm 1 mps 581 mmHg 71%
    22:00 -8°C° 0 mm 1 mps 581 mmHg 73%
    23:00 -8°C° 0 mm 1 mps 581 mmHg 74%

    Day after tomorrow, 18 November, Sunday

    Time Temperature Precipitation Wind Pressure Humidity
    00:00 -8°C° 0 mm 1 mps 581 mmHg 75%
    01:00 -8°C° 0 mm 1 mps 581 mmHg 76%
    02:00 -8°C° 0 mm 1 mps 581 mmHg 77%
    03:00 -9°C° 0 mm 1 mps 581 mmHg 77%
    04:00 -9°C° 0 mm 1 mps 580 mmHg 77%
    05:00 -9°C° 0 mm 1 mps 580 mmHg 76%
    06:00 -9°C° 0 mm 1 mps 580 mmHg 75%
    07:00 -9°C° 0 mm 1 mps 580 mmHg 74%
    08:00 -8°C° 0 mm 1 mps 581 mmHg 67%
    09:00 -6°C° 0 mm 1 mps 581 mmHg 61%
    10:00 -3°C° 0 mm 1 mps 582 mmHg 54%
    11:00 -3°C° 0 mm 1 mps 582 mmHg 51%
    12:00 -2°C° 0 mm 1 mps 582 mmHg 47%
    13:00 -1°C° 0 mm 1 mps 582 mmHg 44%
    14:00 -2°C° 0 mm 1 mps 581 mmHg 47%
    15:00 -3°C° 0 mm 1 mps 580 mmHg 51%
    16:00 -4°C° 0 mm 1 mps 580 mmHg 54%
    17:00 -6°C° 0 mm 1 mps 579 mmHg 58%
    18:00 -7°C° 0 mm 1 mps 578 mmHg 63%
    19:00 -8°C° 0 mm 1 mps 578 mmHg 67%
    20:00 -8°C° 0 mm 1 mps 577 mmHg 68%
    21:00 -8°C° 0 mm 1 mps 577 mmHg 70%
    22:00 -8°C° 0 mm 1 mps 577 mmHg 71%
    23:00 -9°C° 0 mm 1 mps 577 mmHg 72%

    19 November, Monday

    Time Temperature Precipitation Wind Pressure Humidity
    00:00 -9°C° 0 mm 1 mps 576 mmHg 73%
    01:00 -9°C° 0 mm 1 mps 576 mmHg 74%
    02:00 -9°C° 0 mm 1 mps 575 mmHg 74%
    03:00 -9°C° 0 mm 1 mps 575 mmHg 75%
    04:00 -9°C° 0 mm 1 mps 574 mmHg 76%
    05:00 -10°C° 0 mm 1 mps 574 mmHg 76%
    06:00 -10°C° 0 mm 1 mps 574 mmHg 76%
    07:00 -10°C° 0 mm 1 mps 573 mmHg 77%
    08:00 -9°C° 0.1 mm 1 mps 574 mmHg 73%
    09:00 -8°C° 0.1 mm 1 mps 574 mmHg 70%
    10:00 -7°C° 0.1 mm 1 mps 575 mmHg 66%
    11:00 -7°C° 0.1 mm 1 mps 574 mmHg 66%
    12:00 -7°C° 0.1 mm 1 mps 574 mmHg 66%
    13:00 -6°C° 0.1 mm 1 mps 574 mmHg 65%
    14:00 -7°C° 0.2 mm 1 mps 573 mmHg 70%
    15:00 -7°C° 0.2 mm 1 mps 573 mmHg 74%
    16:00 -8°C° 0.2 mm 1 mps 572 mmHg 78%
    17:00 -8°C° 0.3 mm 1 mps 572 mmHg 80%
    18:00 -9°C° 0.3 mm 1 mps 572 mmHg 83%
    19:00 -9°C° 0.3 mm 1 mps 571 mmHg 85%
    20:00 -9°C° 0.3 mm 1 mps 571 mmHg 85%
    21:00 -9°C° 0.3 mm 1 mps 571 mmHg 85%
    22:00 -10°C° 0.3 mm 1 mps 571 mmHg 86%
    23:00 -10°C° 0.2 mm 1 mps 571 mmHg 85%

    20 November, Tuesday

    Time Temperature Precipitation Wind Pressure Humidity
    00:00 -10°C° 0.2 mm 1 mps 570 mmHg 85%
    01:00 -10°C° 0.2 mm 1 mps 570 mmHg 85%
    02:00 -10°C° 0.1 mm 1 mps 569 mmHg 84%
    03:00 -11°C° 0.1 mm 1 mps 569 mmHg 83%
    04:00 -11°C° 0.1 mm 1 mps 569 mmHg 83%
    05:00 -11°C° 0.1 mm 1 mps 568 mmHg 82%
    06:00 -11°C° 0.1 mm 1 mps 568 mmHg 81%
    07:00 -11°C° 0.1 mm 1 mps 568 mmHg 80%
    08:00 -10°C° 0.1 mm 1 mps 568 mmHg 76%
    09:00 -9°C° 0.1 mm 1 mps 568 mmHg 71%
    10:00 -8°C° 0.1 mm 1 mps 569 mmHg 66%
    11:00 -8°C° 0.1 mm 1 mps 568 mmHg 64%
    12:00 -7°C° 0.1 mm 1 mps 568 mmHg 62%
    13:00 -6°C° 0.1 mm 1 mps 568 mmHg 60%
    14:00 -7°C° 0.1 mm 1 mps 568 mmHg 65%
    15:00 -7°C° 0.1 mm 1 mps 567 mmHg 69%
    16:00 -8°C° 0.1 mm 1 mps 567 mmHg 74%
    17:00 -8°C° 0.2 mm 1 mps 567 mmHg 77%
    18:00 -9°C° 0.2 mm 1 mps 566 mmHg 79%
    19:00 -12°C° 0.2 mm 2 mps 566 mmHg 82%
    20:00 -12°C° 0.1 mm 2 mps 566 mmHg 82%
    21:00 -12°C° 0.1 mm 2 mps 566 mmHg 82%
    22:00 -12°C° 0.1 mm 2 mps 566 mmHg 82%
    23:00 -12°C° 0.1 mm 2 mps 566 mmHg 82%

    21 November, Wednesday

    Time Temperature Precipitation Wind Pressure Humidity
    00:00 -12°C° 0.1 mm 2 mps 566 mmHg 82%
    01:00 -13°C° 0.1 mm 2 mps 566 mmHg 81%
    02:00 -13°C° 0.2 mm 2 mps 566 mmHg 81%
    03:00 -13°C° 0.2 mm 2 mps 566 mmHg 80%
    04:00 -13°C° 0.2 mm 2 mps 566 mmHg 80%
    05:00 -13°C° 0.2 mm 2 mps 566 mmHg 79%
    06:00 -13°C° 0.2 mm 2 mps 566 mmHg 79%
    07:00 -13°C° 0.2 mm 2 mps 567 mmHg 79%
    08:00 -12°C° 0.1 mm 2 mps 567 mmHg 76%
    09:00 -10°C° 0.1 mm 2 mps 568 mmHg 73%
    10:00 -10°C° 0.1 mm 2 mps 569 mmHg 70%
    11:00 -9°C° 0.1 mm 2 mps 569 mmHg 68%
    12:00 -9°C° 0.1 mm 2 mps 570 mmHg 67%
    13:00 -9°C° 0.1 mm 2 mps 570 mmHg 65%
    14:00 -8°C° 0.1 mm 1 mps 570 mmHg 67%
    15:00 -9°C° 0.1 mm 1 mps 570 mmHg 70%
    16:00 -9°C° 0.1 mm 1 mps 570 mmHg 73%
    17:00 -10°C° 0.1 mm 1 mps 570 mmHg 75%
    18:00 -11°C° 0.1 mm 1 mps 570 mmHg 78%
    19:00 -12°C° 0.1 mm 1 mps 570 mmHg 81%
    20:00 -13°C° 0 mm 1 mps 570 mmHg 81%
    21:00 -13°C° 0 mm 1 mps 571 mmHg 80%
    22:00 -14°C° 0 mm 1 mps 571 mmHg 80%
    23:00 -14°C° 0 mm 1 mps 571 mmHg 79%
    Show more